Regional Weather Roundup
Issued by NWS New Orleans/Baton Rouge, LA

Home | Current Version | Previous Version | Text Only | Print | Product List | Glossary Off
Versions: 1 2 3 4 5 6 7 8 9 10 11 12 13 14 15 16 17 18 19 20 21 22 23 24 25 26 27 28 29 30 31 32 33 34 35 36 37 38 39 40 41 42 43 44 45 46 47 48 49 50

320
ASUS44 KLIX 270601
RWRLIX
NEW ORLEANS REGIONAL WEATHER ROUNDUP
NATIONAL WEATHER SERVICE NEW ORLEANS LA
100 AM CDT WED AUG 27 2014

NOTE: "FAIR" INDICATES FEW OR NO CLOUDS BELOW 12,000 FEET WITH NO
      SIGNIFICANT WEATHER AND/OR OBSTRUCTIONS TO VISIBILITY.
      SKY/WX - SKY CONDITION AND SIGNIFICANT WEATHER.
      TMP - AIR TEMPERATURE.     DP    - DEWPOINT TEMPERATURE.
      RH  - RELATIVE HUMIDITY.   PRES  - PRESSURE.
      HI  - HEAT INDEX.          WCI   - WIND CHILL INDEX.

*  THESE STATIONS ARE NOT NWS OR FAA STATIONS AND ARE NOT UNDER
   NWS QUALITY CONTROL.

LAZ038-040-048-061>063-065>067-069-270700-
SOUTHEAST LOUISIANA

CITY           SKY/WX    TMP DP  RH WIND       PRES   REMARKS
N.O. AUDUBON   NOT AVBL
N.O. INTL ARPT   N/A     81  74  79 NE3       29.98S
6HR MIN TEMP:  81; 6HR MAX TEMP:  85;

N.O. LAKEFRONT   N/A     83  75  77 E7        29.98S
6HR MIN TEMP:  82; 6HR MAX TEMP:  84;

N.O. DOWNTOWN*   N/A     82  72  69 CALM      29.98F
6HR MIN TEMP:  82; 6HR MAX TEMP:  84;

SLIDELL          N/A     75  72  90 CALM      29.98S
6HR MIN TEMP:  75; 6HR MAX TEMP:  84;

BATON ROUGE      N/A     75  73  93 CALM      29.99S
6HR MIN TEMP:  75; 6HR MAX TEMP:  84;

BOOTHVILLE       N/A     82  74  76 E6        29.96F
6HR MIN TEMP:  82; 6HR MAX TEMP:  83;

BELLE CHASSE     N/A     78  73  84 NE3       29.97S
6HR MIN TEMP:  77; 6HR MAX TEMP:  83;

BOGALUSA*        N/A     73  69  86 CALM      30.01S
6HR MIN TEMP:  73; 6HR MAX TEMP:  86;

GALLIANO*      NOT AVBL
NEW ROADS*       N/A     74  72  95 CALM      30.00S
6HR MIN TEMP:  73; 6HR MAX TEMP:  83;

GONZALES*        N/A     75  75 100 CALM      29.98S
6HR MIN TEMP:  74; 6HR MAX TEMP:  84;

HAMMOND*       NOT AVBL
HOUMA*           N/A     77  73  85 NE3       29.97S
6HR MIN TEMP:  76; 6HR MAX TEMP:  82;

PORT FOURCHON* PTCLDY    84  75  74 E10G17    29.97S

$$

MSZ070-080>082-270700-
SOUTHERN MISSISSIPPI

CITY           SKY/WX    TMP DP  RH WIND       PRES   REMARKS
MCCOMB           N/A     71  66  84 CALM      30.01F
6HR MIN TEMP:  71; 6HR MAX TEMP:  85;

GULFPORT         N/A     77  73  87 N5        29.98S
6HR MIN TEMP:  77; 6HR MAX TEMP:  85;

BILOXI           N/A     78  74  86 NE5       29.98S
6HR MIN TEMP:  77; 6HR MAX TEMP:  85;

PASCAGOULA       N/A     74  72  93 CALM      29.98S
6HR MIN TEMP:  73; 6HR MAX TEMP:  83;


$$

COASTAL OBSERVATIONS
LAKE AND NEARSHORE STATIONS

STATION/POSITION TIME  TEMP    WIND        PRES    WAVE
                       AIR SEA DIR/SP/G            HT/PER
                 (UTC) (F)     (DEG/KT/KT) (MB)    (FT/S)
PASCAGOULA       0500   81      30/  3/  5 1014.7
WAVELAND YACHT   0500   81      50/  3/  4 1014.6
GRAND ISLE       0500   83 85  100/  8/ 12 1015.3
SOUTHWEST PASS   0500   85 88   90/ 16/ 18 1014.6
NEW CANAL        0500   81 84     CALM     1015.5
SHELL BEACH      0500   82 81  100/  7/  8 1014.8

OFFSHORE STATIONS

STATION/POSITION TIME  TEMP    WIND        PRES    WAVE
                       AIR SEA DIR/SP/G            HT/PER
                 (UTC) (F)     (DEG/KT/KT) (MB)    (FT/S)
64 S DAUPHIN ISL 0455   85 86   90/ 14/ 17 1014.6

$$




USA.gov is the U.S. government's official web portal to all federal, state and local government web resources and services.